Weather in Obzha

Russia / Republic of Karelia     60°49′08″N   32°54′53″E
temp.,
°C
wind,
m/s
gust,
m/s
humid.,
%
clouds,
%
prec.,
mm/h
press.,
hPa
HPBL,
m
7 may, fri
fri700:00+3sw41298100 0.1 994801
03:00+3wsw41195100 0.1 9961005
06:00+3wsw3996100 0.2 997593
09:00+3wsw2898100 1.2 999521
12:00+5ssw41095100 0.6 1001926
15:00+5ssw4992100 1.0 1003820
18:00+5sw489169 0.1 1004578
21:00+5ssw268998 0.1 1005165
8 may, sat
sat800:00+4sse2394100 0.0 100571
03:00+3se2396100 0.0 100549
06:00+4se2795100 0.3 1004258
09:00+4e2198100 4.3 1003621
12:00+3nw1498100 3.8 1003484
15:00+5wsw3594100 3.9 1004605
18:00+4nw3997100 1.4 1006628
21:00+3w249570 1.4 1008173
9 may, sun
sun900:00+1w22936 0.0 100939
03:00+1nw25974 0.0 101188
06:00+2n13934 0.0 101283
09:00+6wsw23730 0.0 1014520
12:00+8wsw45610 0.0 1016711
15:00+9w36435 0.0 1017996
18:00+9sw354211 0.0 1018557
21:00+5ssw226876 0.0 101929
10 may, mon
mon1000:00+4sse3971100 0.0 1019149
03:00+3s278289 0.0 1020141
06:00+5s4108191 0.0 1020399
09:00+7s51188100 0.3 1020746
12:00+8ssw41189100 0.6 1021570
15:00+15sw4107080 0.8 10221047
18:00+16sw396693 0.0 1022712
21:00+11sw2285100 0.1 102346
11 may, tue
tue1100:00+12ssw41383100 0.0 1024337
03:00+11ssw41384100 0.0 1024353
06:00+11ssw41283100 0.0 1025366
09:00+15ssw5116535 0.0 1026567
12:00+18ssw595099 0.0 1026919
15:00+20ssw594555 0.0 10251234
18:00+19ssw4849100 0.0 10251068
21:00+15ssw3116593 0.0 1025255